Orlando International, FL

1:41 AM EDT on May 28, 2018 (GMT -0400)
Orlando International

Weather History for KMCO - September, 2013

Change the Weather History Date:

Friday, September 20, 2013

  Actual Average Record
Temperature  
Mean Temperature 80 °F 81 °F  
Max Temperature 88 °F 89 °F 96 °F (1936)
Min Temperature 72 °F 72 °F 57 °F (1981)
Degree Days  
Heating Degree Days 0 0  
Month to date heating degree days 0 0  
Since 1 July heating degree days 0 0  
Cooling Degree Days 15 16  
Month to date cooling degree days 345 333  
Year to date cooling degree days 2836 2726  
Growing Degree Days 30 (Base 50)    
Moisture  
Dew Point 69 °F    
Average Humidity 72    
Maximum Humidity 93    
Minimum Humidity 50    
Precipitation  
Precipitation 0.00 in 0.20 in 7.01 in (1897)
Month to date precipitation 3.44 4.21  
Year to date precipitation 39.03 40.82  
Sea Level Pressure  
Sea Level Pressure 29.99 in    
Wind  
Wind Speed 7 mph (ENE)    
Max Wind Speed 15 mph    
Max Gust Speed 21 mph    
Visibility 10 miles    
Events      
T = Trace of Precipitation, MM = Missing Value Source: NWS Daily Summary

Daily Weather History Graph

Daily Weather History Graph

Search for Another Location

Airport or City:

Astronomy

Sep. 20, 2013 Rise Set
Actual Time 7:12 AM EDT 7:23 PM EDT
Civil Twilight 6:49 AM EDT 7:47 PM EDT
Nautical Twilight 6:21 AM EDT 8:14 PM EDT
Astronomical Twilight 5:54 AM EDT 8:42 PM EDT
Moon 8:08 PM EDT (9/20) 8:16 AM EDT (9/20)
Length of Visible Light 12h 58m
Length of Day
12h 11m
Full, 98% of the Moon is Illuminated
Sep 20
Full
Sep 26
Last Quarter
Oct 4
New
Oct 11
First Quarter
Oct 18
Full

Hourly Weather History & Observations

Time (EDT) Temp. Heat Index Dew Point Humidity Pressure Visibility Wind Dir Wind Speed Gust Speed Precip Events Conditions
12:53 AM 73.9 °F - 69.1 °F 85% 30.04 in 10.0 mi Calm Calm - N/A   Partly Cloudy
1:53 AM 73.0 °F - 69.1 °F 87% 30.03 in 10.0 mi NNE 4.6 mph - N/A   Partly Cloudy
2:53 AM 73.0 °F - 69.1 °F 87% 30.03 in 10.0 mi Calm Calm - N/A   Clear
3:53 AM 73.0 °F - 69.1 °F 87% 30.02 in 10.0 mi Calm Calm - N/A   Partly Cloudy
4:53 AM 73.0 °F - 69.1 °F 87% 30.01 in 10.0 mi North 3.5 mph - N/A   Partly Cloudy
5:53 AM 72.0 °F - 69.1 °F 91% 30.01 in 10.0 mi North 3.5 mph - N/A   Clear
6:53 AM 73.0 °F - 69.1 °F 87% 30.03 in 10.0 mi NNE 5.8 mph - N/A   Partly Cloudy
7:53 AM 73.9 °F - 69.1 °F 85% 30.03 in 10.0 mi Calm Calm - N/A   Clear
8:53 AM 79.0 °F - 69.1 °F 72% 30.04 in 10.0 mi NE 6.9 mph - N/A   Partly Cloudy
9:53 AM 82.0 °F 85.9 °F 70.0 °F 67% 30.05 in 10.0 mi ENE 10.4 mph - N/A   Partly Cloudy
10:53 AM 82.9 °F 85.8 °F 68.0 °F 60% 30.04 in 10.0 mi ENE 10.4 mph - N/A   Partly Cloudy
11:53 AM 84.9 °F 88.2 °F 68.0 °F 57% 30.02 in 10.0 mi ENE 11.5 mph - N/A   Scattered Clouds
12:53 PM 87.1 °F 90.6 °F 68.0 °F 53% 30.01 in 10.0 mi ENE 11.5 mph - N/A   Scattered Clouds
1:53 PM 87.1 °F 89.9 °F 66.9 °F 51% 29.99 in 10.0 mi ENE 6.9 mph - N/A   Mostly Cloudy
2:53 PM 86.0 °F 88.8 °F 66.9 °F 53% 29.97 in 10.0 mi East 9.2 mph - N/A   Mostly Cloudy
3:53 PM 86.0 °F 88.8 °F 66.9 °F 53% 29.94 in 10.0 mi East 9.2 mph - N/A   Mostly Cloudy
4:53 PM 86.0 °F 88.8 °F 66.9 °F 53% 29.94 in 10.0 mi ENE 8.1 mph - N/A   Scattered Clouds
5:53 PM 84.0 °F 86.5 °F 66.9 °F 56% 29.94 in 10.0 mi East 10.4 mph - N/A   Scattered Clouds
6:53 PM 82.0 °F 85.5 °F 69.1 °F 65% 29.94 in 10.0 mi East 10.4 mph - N/A   Scattered Clouds
7:53 PM 79.0 °F - 69.1 °F 72% 29.93 in 10.0 mi East 10.4 mph - N/A   Scattered Clouds
8:53 PM 78.1 °F - 69.1 °F 74% 29.94 in 10.0 mi ENE 8.1 mph - N/A   Clear
9:53 PM 75.9 °F - 70.0 °F 82% 29.96 in 10.0 mi ENE 6.9 mph - N/A   Partly Cloudy
10:53 PM 75.0 °F - 70.0 °F 84% 29.97 in 10.0 mi ENE 4.6 mph - N/A   Partly Cloudy
11:53 PM 75.0 °F - 70.0 °F 84% 29.97 in 10.0 mi ENE 4.6 mph - N/A   Partly Cloudy